Date,TemperatureHighF,TemperatureAvgF,TemperatureLowF,DewpointHighF,DewpointAvgF,DewpointLowF,HumidityHigh,HumidityAvg,HumidityLow,PressureMaxIn,PressureMinIn,WindSpeedMaxMPH,WindSpeedAvgMPH,GustSpeedMaxMPH,PrecipitationSumIn
2013-1-1,38.0,33.5,31.0,37.0,29.5,13.0,97,87,38,0.00,40.00,7,4,14,0.34
2013-1-2,32.0,28.2,23.0,30.0,25.1,21.0,97,89,67,0.00,40.00,4,2,10,0.06
2013-1-3,35.0,25.5,20.0,23.0,18.9,16.0,91,77,46,0.00,40.00,5,2,11,0.05
2013-1-4,30.0,24.5,22.0,19.0,17.4,15.0,82,74,62,0.00,40.00,7,5,18,0.01
2013-1-5,41.0,30.4,22.0,22.0,19.2,17.0,83,65,43,0.00,40.00,5,3,13,0.09
2013-1-6,36.0,33.8,31.0,27.0,25.1,19.0,81,70,52,0.00,40.00,6,3,15,0.03
2013-1-7,42.0,31.8,25.0,27.0,20.6,17.0,79,64,41,0.00,40.00,6,3,15,0.00
2013-1-8,50.0,36.8,28.0,27.0,21.4,18.0,75,56,30,0.00,40.00,4,2,9,0.00
2013-1-9,49.0,43.1,36.0,46.0,34.9,23.0,97,74,55,0.00,40.00,4,2,9,0.02
2013-1-10,49.0,42.3,35.0,39.0,34.7,29.0,96,76,55,0.00,40.00,5,3,8,0.01
2013-1-11,57.0,48.4,41.0,52.0,43.4,29.0,95,83,56,0.00,40.00,5,4,12,0.04
2013-1-12,71.0,60.2,54.0,58.0,53.3,51.0,97,79,52,0.00,40.00,5,3,10,0.01
2013-1-13,67.0,59.3,54.0,53.0,49.7,47.0,85,71,52,0.00,40.00,5,3,15,0.02
2013-1-14,58.0,44.3,33.0,54.0,42.6,32.0,98,93,83,0.00,40.00,5,3,11,0.62
2013-1-15,40.0,37.4,33.0,39.0,36.4,32.0,98,97,95,0.00,40.00,4,3,10,0.99
2013-1-16,45.0,39.0,35.0,44.0,38.0,34.0,98,98,96,0.00,40.00,6,2,12,0.71
2013-1-17,36.0,31.5,27.0,35.0,28.8,24.0,98,90,69,0.00,40.00,4,2,11,0.07
2013-1-18,37.0,27.9,21.0,25.0,20.5,16.0,91,75,46,0.00,40.00,6,4,14,0.43
2013-1-19,50.0,34.8,24.0,25.0,18.4,13.0,78,53,30,0.00,40.00,5,2,15,0.12
2013-1-20,47.0,37.8,29.0,28.0,20.1,11.0,67,50,30,0.00,40.00,8,5,23,0.02
2013-1-21,39.0,29.4,20.0,15.0,8.6,2.0,60,42,28,0.00,40.00,10,5,27,0.00
2013-1-22,20.0,13.4,8.0,2.0,-6.0,-10.0,52,42,30,0.00,40.00,9,7,25,0.00
2013-1-23,27.0,15.5,8.0,15.0,-0.2,-8.0,62,50,27,0.00,40.00,7,4,23,0.00
2013-1-24,28.0,17.6,11.0,16.0,4.9,-2.0,74,57,44,0.00,40.00,10,6,22,0.00
2013-1-25,28.0,18.0,11.0,27.0,10.7,0.0,94,74,53,0.00,40.00,5,3,13,0.00
2013-1-26,28.0,23.9,21.0,27.0,19.8,16.0,94,84,77,0.00,40.00,9,5,19,0.00
2013-1-27,37.0,26.7,17.0,23.0,17.9,13.0,88,70,50,0.00,40.00,4,2,9,0.29
2013-1-28,58.0,42.5,30.0,46.0,37.3,23.0,97,83,59,0.00,40.00,7,3,18,0.22
2013-1-29,66.0,54.5,47.0,52.0,46.4,44.0,97,77,51,0.00,40.00,5,3,14,0.06
2013-1-30,65.0,55.1,43.0,55.0,50.6,41.0,99,86,66,0.00,40.00,10,5,20,2.08
2013-1-31,43.0,26.7,24.0,41.0,18.4,14.0,94,71,60,0.00,40.00,9,7,28,0.74